When you browse on this site, cookies collect data to enhance your experience and personalize the content and advertising you see.
Visit our Privacy Policy to learn more. By continuing to use the site, you agree to this use of cookies and data.
  • în România
  • Lista ţărilor
  • Pe 7 zile
  • Temperatura apei
  • Hartă satelitară
  • Meteo pe hartă
  • Widget-uri
  • user-avatar
    Intrare

    Meteo pe oră la Arroyomolinos

    Astăzi, 19 Februarie, Marţi

    Timp Temperatura Precipitaţii Vânt Presiune Umiditate
    00:00 +7°C° 0 mm 2 m/s 704 mmHg 62%
    01:00 +7°C° 0 mm 2 m/s 704 mmHg 67%
    02:00 +6°C° 0 mm 2 m/s 704 mmHg 72%
    03:00 +6°C° 0 mm 2 m/s 704 mmHg 77%
    04:00 +5°C° 0 mm 2 m/s 704 mmHg 80%
    05:00 +5°C° 0 mm 2 m/s 704 mmHg 82%
    06:00 +5°C° 0 mm 2 m/s 704 mmHg 85%
    07:00 +6°C° 0 mm 2 m/s 704 mmHg 81%
    08:00 +6°C° 0 mm 2 m/s 704 mmHg 77%
    09:00 +7°C° 0 mm 2 m/s 704 mmHg 73%
    10:00 +9°C° 0 mm 2 m/s 704 mmHg 66%
    11:00 +11°C° 0 mm 1 m/s 704 mmHg 59%
    12:00 +12°C° 0 mm 1 m/s 704 mmHg 52%
    13:00 +13°C° 0 mm 1 m/s 704 mmHg 49%
    14:00 +14°C° 0 mm 1 m/s 704 mmHg 45%
    15:00 +15°C° 0 mm 1 m/s 704 mmHg 42%
    16:00 +13°C° 0 mm 1 m/s 703 mmHg 46%
    17:00 +11°C° 0 mm 0 m/s 703 mmHg 50%
    18:00 +10°C° 0 mm 0 m/s 703 mmHg 54%
    19:00 +9°C° 0 mm 0 m/s 704 mmHg 56%
    20:00 +10°C° 0 mm 1 m/s 704 mmHg 57%
    21:00 +9°C° 0 mm 1 m/s 704 mmHg 58%
    22:00 +9°C° 0 mm 1 m/s 705 mmHg 60%
    23:00 +8°C° 0 mm 1 m/s 705 mmHg 62%

    Mâine, 20 Februarie, Miercuri

    Timp Temperatura Precipitaţii Vânt Presiune Umiditate
    00:00 +8°C° 0 mm 1 m/s 705 mmHg 64%
    01:00 +8°C° 0 mm 1 m/s 705 mmHg 64%
    02:00 +7°C° 0 mm 1 m/s 705 mmHg 65%
    03:00 +7°C° 0 mm 1 m/s 705 mmHg 65%
    04:00 +6°C° 0 mm 2 m/s 705 mmHg 67%
    05:00 +5°C° 0 mm 2 m/s 705 mmHg 68%
    06:00 +5°C° 0 mm 2 m/s 705 mmHg 69%
    07:00 +6°C° 0 mm 2 m/s 706 mmHg 66%
    08:00 +7°C° 0 mm 2 m/s 706 mmHg 63%
    09:00 +8°C° 0 mm 2 m/s 707 mmHg 59%
    10:00 +9°C° 0 mm 2 m/s 707 mmHg 55%
    11:00 +12°C° 0 mm 1 m/s 707 mmHg 50%
    12:00 +13°C° 0 mm 1 m/s 707 mmHg 46%
    13:00 +14°C° 0 mm 1 m/s 707 mmHg 44%
    14:00 +14°C° 0 mm 1 m/s 706 mmHg 42%
    15:00 +15°C° 0 mm 1 m/s 706 mmHg 40%
    16:00 +14°C° 0 mm 1 m/s 706 mmHg 45%
    17:00 +12°C° 0 mm 0 m/s 706 mmHg 50%
    18:00 +10°C° 0 mm 0 m/s 706 mmHg 55%
    19:00 +11°C° 0 mm 1 m/s 707 mmHg 55%
    20:00 +11°C° 0 mm 1 m/s 707 mmHg 56%
    21:00 +10°C° 0 mm 1 m/s 708 mmHg 56%
    22:00 +10°C° 0 mm 1 m/s 708 mmHg 58%
    23:00 +9°C° 0 mm 1 m/s 708 mmHg 60%

    Poimâine, 21 Februarie, Joi

    Timp Temperatura Precipitaţii Vânt Presiune Umiditate
    00:00 +9°C° 0 mm 1 m/s 708 mmHg 61%
    01:00 +8°C° 0 mm 2 m/s 708 mmHg 60%
    02:00 +7°C° 0 mm 2 m/s 708 mmHg 59%
    03:00 +7°C° 0 mm 2 m/s 708 mmHg 58%
    04:00 +7°C° 0 mm 2 m/s 709 mmHg 60%
    05:00 +6°C° 0 mm 2 m/s 709 mmHg 61%
    06:00 +5°C° 0 mm 3 m/s 709 mmHg 62%
    07:00 +7°C° 0 mm 3 m/s 709 mmHg 60%
    08:00 +8°C° 0 mm 3 m/s 710 mmHg 57%
    09:00 +9°C° 0 mm 3 m/s 710 mmHg 54%
    10:00 +10°C° 0 mm 3 m/s 710 mmHg 49%
    11:00 +13°C° 0 mm 2 m/s 710 mmHg 44%
    12:00 +14°C° 0 mm 2 m/s 711 mmHg 38%
    13:00 +15°C° 0 mm 2 m/s 710 mmHg 35%
    14:00 +16°C° 0 mm 2 m/s 710 mmHg 32%
    15:00 +17°C° 0 mm 2 m/s 710 mmHg 29%
    16:00 +16°C° 0 mm 2 m/s 710 mmHg 31%
    17:00 +14°C° 0 mm 2 m/s 710 mmHg 34%
    18:00 +13°C° 0 mm 1 m/s 710 mmHg 36%
    19:00 +12°C° 0 mm 2 m/s 711 mmHg 38%
    20:00 +10°C° 0 mm 2 m/s 711 mmHg 40%
    21:00 +10°C° 0 mm 2 m/s 712 mmHg 42%
    22:00 +9°C° 0 mm 2 m/s 712 mmHg 44%
    23:00 +9°C° 0 mm 2 m/s 712 mmHg 46%

    22 Februarie, Vineri

    Timp Temperatura Precipitaţii Vânt Presiune Umiditate
    00:00 +8°C° 0 mm 2 m/s 712 mmHg 48%
    01:00 +8°C° 0 mm 2 m/s 712 mmHg 50%
    02:00 +7°C° 0 mm 3 m/s 712 mmHg 52%
    03:00 +7°C° 0 mm 3 m/s 712 mmHg 53%
    04:00 +7°C° 0 mm 3 m/s 712 mmHg 55%
    05:00 +6°C° 0 mm 2 m/s 712 mmHg 58%
    06:00 +6°C° 0 mm 2 m/s 712 mmHg 60%
    07:00 +7°C° 0 mm 2 m/s 713 mmHg 56%
    08:00 +8°C° 0 mm 2 m/s 713 mmHg 53%
    09:00 +9°C° 0 mm 2 m/s 713 mmHg 50%
    10:00 +12°C° 0 mm 2 m/s 713 mmHg 46%
    11:00 +14°C° 0 mm 2 m/s 713 mmHg 41%
    12:00 +15°C° 0 mm 2 m/s 713 mmHg 37%
    13:00 +16°C° 0 mm 1 m/s 712 mmHg 34%
    14:00 +18°C° 0 mm 1 m/s 712 mmHg 31%
    15:00 +19°C° 0 mm 1 m/s 711 mmHg 28%
    16:00 +16°C° 0 mm 1 m/s 711 mmHg 32%
    17:00 +15°C° 0 mm 1 m/s 711 mmHg 35%
    18:00 +13°C° 0 mm 1 m/s 710 mmHg 39%
    19:00 +13°C° 0 mm 1 m/s 711 mmHg 39%
    20:00 +12°C° 0 mm 2 m/s 711 mmHg 40%
    21:00 +10°C° 0 mm 2 m/s 711 mmHg 41%
    22:00 +10°C° 0 mm 2 m/s 711 mmHg 43%
    23:00 +10°C° 0 mm 1 m/s 711 mmHg 45%

    23 Februarie, Sâmbătă

    Timp Temperatura Precipitaţii Vânt Presiune Umiditate
    00:00 +9°C° 0 mm 1 m/s 711 mmHg 46%
    01:00 +9°C° 0 mm 1 m/s 711 mmHg 48%
    02:00 +8°C° 0 mm 1 m/s 711 mmHg 50%
    03:00 +8°C° 0 mm 1 m/s 711 mmHg 52%
    04:00 +7°C° 0 mm 1 m/s 711 mmHg 53%
    05:00 +7°C° 0 mm 1 m/s 711 mmHg 54%
    06:00 +6°C° 0 mm 1 m/s 711 mmHg 55%
    07:00 +8°C° 0 mm 1 m/s 711 mmHg 49%
    08:00 +10°C° 0 mm 1 m/s 712 mmHg 44%
    09:00 +12°C° 0 mm 1 m/s 713 mmHg 38%
    10:00 +13°C° 0 mm 1 m/s 713 mmHg 34%
    11:00 +15°C° 0 mm 1 m/s 713 mmHg 30%
    12:00 +16°C° 0 mm 1 m/s 713 mmHg 27%
    13:00 +18°C° 0 mm 1 m/s 712 mmHg 24%
    14:00 +19°C° 0 mm 1 m/s 712 mmHg 22%
    15:00 +19°C° 0 mm 2 m/s 712 mmHg 19%
    16:00 +17°C° 0 mm 2 m/s 712 mmHg 22%
    17:00 +16°C° 0 mm 2 m/s 711 mmHg 25%
    18:00 +14°C° 0 mm 2 m/s 711 mmHg 28%
    19:00 +13°C° 0 mm 2 m/s 712 mmHg 30%
    20:00 +13°C° 0 mm 2 m/s 712 mmHg 32%
    21:00 +12°C° 0 mm 1 m/s 712 mmHg 34%
    22:00 +11°C° 0 mm 1 m/s 712 mmHg 36%
    23:00 +11°C° 0 mm 1 m/s 712 mmHg 38%

    24 Februarie, Duminică

    Timp Temperatura Precipitaţii Vânt Presiune Umiditate
    00:00 +10°C° 0 mm 1 m/s 712 mmHg 40%
    01:00 +10°C° 0 mm 1 m/s 712 mmHg 41%
    02:00 +9°C° 0 mm 1 m/s 712 mmHg 42%
    03:00 +9°C° 0 mm 1 m/s 712 mmHg 43%
    04:00 +8°C° 0 mm 1 m/s 712 mmHg 45%
    05:00 +8°C° 0 mm 1 m/s 712 mmHg 46%
    06:00 +7°C° 0 mm 1 m/s 712 mmHg 47%
    07:00 +9°C° 0 mm 1 m/s 712 mmHg 42%
    08:00 +10°C° 0 mm 0 m/s 713 mmHg 38%
    09:00 +12°C° 0 mm 0 m/s 713 mmHg 33%
    10:00 +14°C° 0 mm 0 m/s 713 mmHg 30%
    11:00 +15°C° 0 mm 0 m/s 713 mmHg 27%
    12:00 +17°C° 0 mm 0 m/s 713 mmHg 24%
    13:00 +18°C° 0 mm 0 m/s 713 mmHg 23%
    14:00 +19°C° 0 mm 0 m/s 712 mmHg 22%
    15:00 +22°C° 0 mm 1 m/s 712 mmHg 20%
    16:00 +20°C° 0 mm 1 m/s 712 mmHg 24%
    17:00 +18°C° 0 mm 1 m/s 712 mmHg 28%
    18:00 +15°C° 0 mm 1 m/s 711 mmHg 31%
    19:00 +15°C° 0 mm 1 m/s 712 mmHg 34%
    20:00 +14°C° 0 mm 2 m/s 712 mmHg 36%
    21:00 +13°C° 0 mm 2 m/s 712 mmHg 39%
    22:00 +12°C° 0 mm 2 m/s 712 mmHg 41%
    23:00 +10°C° 0 mm 2 m/s 712 mmHg 43%
    Arată mai mult